Location: Kielce
(50.8833°N, 20.6167°E)
Time: 06:01:12
(UTC+02:00)

Tiros 1 despin weight - All Passes

Search period start: 14 April 2021 00:00
Search period end: 24 April 2021 00:00
Orbit: 593 x 641 km, 48.2° (Epoch: 13 April)

Date Brightness Start Highest point End Pass type
(mag) Time Alt. Az. Time Alt. Az. Time Alt. Az.
14 Apr - 07:35:53 10° S 07:38:50 17° SE 07:41:44 10° ESE daylight
14 Apr - 09:15:22 10° SW 09:19:39 44° SSE 09:23:54 10° E daylight
14 Apr - 10:56:29 10° W 11:00:54 62° S 11:05:17 10° E daylight
14 Apr - 12:37:57 10° W 12:42:08 40° SSW 12:46:15 10° SE daylight
14 Apr - 14:20:30 10° WSW 14:22:50 14° SW 14:25:10 10° S daylight
15 Apr - 07:51:03 10° SSW 07:54:49 26° SSE 07:58:33 10° E daylight
15 Apr - 09:31:26 10° WSW 09:35:51 55° S 09:40:12 10° E daylight
15 Apr - 11:12:46 10° W 11:17:10 58° S 11:21:31 10° ESE daylight
15 Apr - 12:54:24 10° W 12:58:14 28° SSW 13:02:01 10° SSE daylight
16 Apr - 06:28:13 10° SSE 06:30:14 13° SE 06:32:14 10° ESE daylight
16 Apr - 08:06:44 10° SW 08:10:54 37° SSE 08:15:03 10° E daylight
16 Apr - 09:47:39 10° WSW 09:52:06 62° S 09:56:30 10° E daylight
16 Apr - 11:29:05 10° W 11:33:23 47° SSW 11:37:38 10° ESE daylight
16 Apr - 13:11:06 10° W 13:14:14 19° SW 13:17:21 10° S daylight
17 Apr - 06:42:46 10° SSW 06:46:09 21° SE 06:49:31 10° E daylight
17 Apr - 08:22:41 10° WSW 08:27:04 49° SSE 08:31:24 10° E daylight
17 Apr - 10:03:55 10° W 10:08:22 61° S 10:12:45 10° ESE daylight
17 Apr - 11:45:27 10° W 11:49:32 35° SSW 11:53:34 10° SE daylight
17 Apr - 13:28:42 10° WSW 13:30:08 11° SW 13:31:33 10° SSW daylight
18 Apr - 06:58:10 10° SW 07:02:11 31° SSE 07:06:09 10° E daylight
18 Apr - 08:38:50 10° WSW 08:43:18 59° S 08:47:42 10° E daylight
18 Apr - 10:20:13 10° W 10:24:37 54° SSW 10:28:57 10° ESE daylight
18 Apr - 12:01:58 10° W 12:05:36 24° SSW 12:09:11 10° SSE daylight
19 Apr - 05:34:45 10° S 05:37:31 16° SE 05:40:16 10° ESE daylight
19 Apr - 07:14:00 10° SW 07:18:18 42° SSE 07:22:34 10° E daylight
19 Apr - 08:55:04 10° W 08:59:33 63° S 09:03:59 10° E daylight
19 Apr - 10:36:33 10° W 10:40:48 43° SSW 10:45:00 10° SE daylight
19 Apr - 12:18:53 10° WSW 12:21:34 16° SW 12:24:13 10° S daylight
20 Apr - 05:49:46 10° SSW 05:53:29 25° SSE 05:57:11 10° E daylight
20 Apr - 07:30:03 10° WSW 07:34:30 54° SSE 07:38:53 10° E daylight
20 Apr - 09:11:21 10° W 09:15:49 59° S 09:20:12 10° ESE daylight
20 Apr - 10:52:58 10° W 10:56:55 31° SSW 11:00:50 10° SE daylight
21 Apr - 04:27:16 10° SSE 04:28:55 12° SE 04:30:34 10° ESE visible
21 Apr - 06:05:22 10° SW 06:09:34 35° SSE 06:13:42 10° E daylight
21 Apr - 07:46:14 10° WSW 07:50:44 61° S 07:55:10 10° E daylight
21 Apr - 09:27:39 10° W 09:32:02 50° SSW 09:36:21 10° ESE daylight
21 Apr - 11:09:35 10° W 11:12:56 21° SW 11:16:15 10° SSE daylight
22 Apr - 04:41:32 10° S 04:44:49 19° SE 04:48:05 10° E visible
22 Apr - 06:21:18 10° WSW 06:25:42 47° SSE 06:30:04 10° E daylight
22 Apr - 08:02:29 10° W 08:07:00 62° S 08:11:26 10° ESE daylight
22 Apr - 09:44:01 10° W 09:48:12 38° SSW 09:52:19 10° SE daylight
22 Apr - 11:26:51 10° WSW 11:28:50 13° SW 11:30:50 10° SSW daylight
23 Apr - 04:56:51 10° SSW 05:00:50 29° SSE 05:04:46 10° E daylight
23 Apr - 06:37:24 10° WSW 06:41:55 58° S 06:46:22 10° E daylight
23 Apr - 08:18:47 10° W 08:23:15 56° S 08:27:38 10° ESE daylight
23 Apr - 10:00:30 10° W 10:04:17 27° SSW 10:08:00 10° SSE daylight
